[[{"header":{"parameterUnit":"m.s-1","parameterCategory":1,"la1":30.2991,"la2":30.254,"lo1":-89.0895,"lo2":-89.0444,"dy":0.0017,"dx":0.0017,"nx":28,"ny":28,"refTime":"2023-08-26T03:00:00:Z","depth":0,"parameterNumber":2,"parameterNumberName":"U-component_of_WINDS"},"data":[0,0,0,0,0,0,0,0,0,0,0,0,0,0,0,0,0,0,0,0,0,0,0,0,0,0,0,0,0,0,0,0,0,0,0,0,0,0,0,0,0,0,0,0,0,0,0,0,0,0,0,0,0,0,0,0,0,0,2.5796,2.5795,0,2.572,2.5719,2.5718,2.5576,2.5574,2.5571,2.5568,2.5496,2.5496,2.5497,0,0,0,0,0,0,0,0,0,0,0,0,0,2.5825,2.5825,2.5796,2.5795,2.5794,2.572,2.5719,2.5718,2.5577,2.5574,2.557,2.5567,2.5496,2.5496,2.5497,0,0,0,0,0,0,0,0,0,0,0,0,0,2.5788,2.5826,2.5796,2.5715,2.5707,2.572,2.5719,2.5718,2.5578,2.5574,2.5569,2.5566,2.5495,2.5496,2.5497,2.5586,0,0,2.55,2.5501,0,0,0,0,0,0,0,0,2.579,2.5787,2.5728,2.572,2.5711,2.5653,2.5702,2.5674,2.5579,2.5627,2.5568,2.5564,2.5552,2.5548,2.5543,2.5582,2.5579,2.55,2.5501,2.5501,2.5501,0,0,0,0,0,0,0,2.5793,2.5789,2.5766,2.5727,2.5717,2.5684,2.5674,2.5696,2.5614,2.5622,2.5612,2.5604,2.5547,2.5542,2.554,2.5578,2.55,2.5501,2.5502,2.5502,2.569,2.5694,0,0,0,0,0,0,2.5806,2.5792,2.5768,2.5764,2.5741,2.5687,2.5676,2.5676,2.5613,2.5599,2.5608,2.5598,2.5543,2.5539,2.5537,2.5639,2.5501,2.5502,2.5503,2.5686,2.5691,2.5696,0,0,0,0,0,0,2.5808,2.5806,2.5771,2.5775,2.5768,2.5691,2.5692,2.5677,2.5672,2.5602,2.5587,2.5619,2.5539,2.5536,2.5575,2.5634,2.5503,2.5503,2.568,2.5687,2.5693,2.5843,0,0,0,0,0,0,2.5809,2.5807,2.5838,2.5777,2.5768,2.5809,2.5696,2.5678,2.5674,2.566,2.5608,2.5595,2.5536,2.5575,2.5576,2.5633,2.5504,2.5675,2.5684,2.5691,2.5832,2.5853,2.5872,0,0,0,0,0,2.581,2.5883,2.584,2.5838,2.5806,2.5813,2.5808,2.5737,2.5679,2.5711,2.5666,2.5597,2.5627,2.558,2.558,2.5639,2.5671,2.5681,2.5691,2.5823,2.5849,2.5871,0,0,0,0,0,0,2.5955,2.5874,2.5825,2.588,2.5854,2.5789,2.5827,2.5766,2.5758,2.5746,2.5659,2.5648,2.57,2.5673,2.5621,2.5723,2.5638,2.5649,2.5739,2.5763,2.5783,2.5789,2.5505,0,0,0,0,0,2.5993,2.6004,2.5933,2.5988,2.5978,2.5905,2.5906,2.5853,2.5823,2.5812,2.577,2.5746,2.575,2.5755,2.5754,2.5827,2.5815,2.5868,2.5888,2.5904,2.5915,2.5955,2.5978,2.5729,2.5728,2.5728,0,0,2.6072,2.6029,2.6041,2.6016,2.599,2.6006,2.5897,2.5917,2.5929,2.5816,2.585,2.5819,2.5787,2.5844,2.5867,2.5823,2.5982,2.5917,2.5931,2.5933,2.5968,2.5991,2.6013,2.5735,2.5734,2.5733,0,0,2.6225,2.6192,2.6236,2.6212,2.6174,2.6125,2.6136,2.608,2.6055,2.6088,2.6004,2.6018,2.6026,2.6007,2.5998,2.6146,2.6084,2.6149,2.6254,2.6293,2.6313,2.633,2.6386,2.6407,2.6159,2.616,2.616,0,2.6329,2.6347,2.6267,2.6293,2.6286,2.6183,2.6229,2.621,2.6174,2.6173,2.6123,2.6133,2.6104,2.6157,2.6193,2.6189,2.6201,2.6155,2.6316,2.6333,2.6347,2.64,2.6421,2.6168,2.6167,2.6166,2.6166,0,2.6478,2.6492,2.6533,2.65,2.6497,2.6533,2.6461,2.6468,2.6416,2.6374,2.6411,2.6372,2.6364,2.6372,2.6321,2.6419,2.6393,2.6331,2.6245,2.6381,2.6429,2.6448,2.618,2.6177,2.6175,2.6173,0,0,2.672,2.6643,2.666,2.6645,2.6596,2.6606,2.6639,2.6629,2.6639,2.6618,2.6645,2.6655,2.6598,2.6589,2.6536,2.657,2.6694,2.6504,2.6502,2.6544,2.6803,2.6852,2.6876,2.6651,2.6655,2.6658,2.6807,0,2.6864,2.6914,2.6844,2.691,2.6924,2.6828,2.6856,2.6831,2.6793,2.6801,2.6759,2.6769,2.6691,2.6685,2.6715,2.6673,2.6746,2.6661,2.6679,2.6681,2.6693,2.6901,2.6952,2.7094,2.6825,2.6828,2.683,0,2.7039,2.7026,2.7094,2.7043,2.7046,2.7073,2.706,2.7068,2.7038,2.7008,2.6999,2.6935,2.6966,2.6882,2.6925,2.6869,2.6873,2.6854,2.6857,2.6858,2.6765,2.691,2.7138,2.7161,2.6858,2.6856,2.6854,0,2.7212,2.7212,2.7253,2.7243,2.7184,2.7206,2.7182,2.7148,2.7148,2.7137,2.7136,2.713,2.7127,2.7125,2.7063,2.7006,2.7116,2.7024,2.7094,2.7096,2.7123,2.7123,2.7358,2.7122,2.7121,2.7121,2.7121,0,2.7382,2.7428,2.7331,2.7357,2.7407,2.7326,2.7379,2.7346,2.7317,2.7336,2.7252,2.7273,2.7187,2.72,2.7151,2.7197,2.7196,2.7175,2.7162,2.7184,2.7187,2.7187,2.7176,2.7127,2.7125,2.7124,2.7123,0,2.7585,2.7521,2.756,2.7501,2.7487,2.7527,2.7477,2.75,2.7456,2.7483,2.7484,2.7417,2.7427,2.7364,2.7363,2.7331,2.7402,2.737,2.7412,2.7403,2.7477,2.7473,2.7722,2.7753,2.7495,2.7497,2.7499,0,2.7699,2.7732,2.7677,2.7683,2.7664,2.7675,2.7674,2.7597,2.76,2.757,2.7598,2.7601,2.76,2.7622,2.7574,2.7574,2.7544,2.7631,2.7543,2.7566,2.7549,2.7549,2.7553,2.7651,2.7654,2.7656,2.7659,0,2.7909,2.7876,2.7877,2.7869,2.787,2.7859,2.7843,2.7854,2.7771,2.7779,2.7788,2.7787,2.7787,2.7792,2.7783,2.7761,2.7698,2.7686,2.7703,2.7727,2.7751,2.7743,2.7465,2.7682,2.7679,2.7678,2.7676,2.7675,2.8073,2.8099,2.8065,2.807,2.8049,2.8037,2.8056,2.8015,2.8021,2.8013,2.7968,2.7987,2.7958,2.7939,2.7923,2.7938,2.7897,2.792,2.7927,2.7935,2.7949,2.7747,2.7936,2.7935,2.7934,2.7934,2.7933,0,2.8282,2.8255,2.826,2.824,2.8245,2.8182,2.8162,2.8171,2.8188,2.8166,2.8167,2.8179,2.8185,2.8138,2.8138,2.8159,2.8131,2.8162,2.8161,2.8158,2.7985,2.7972,2.8185,2.8185,2.8185,2.8185,2.8185,2.8185,2.8391,2.8433,2.8397,2.8429,2.8401,2.8418,2.8412,2.8402,2.8384,2.8401,2.8405,2.8373,2.8343,2.834,2.8343,2.8329,2.8335,2.8377,2.8355,2.8194,2.817,2.8146,2.8134,2.8378,2.8379,2.8527,2.8528,2.8529]},{"header":{"parameterUnit":"m.s-1","parameterCategory":1,"la1":30.2991,"la2":30.254,"lo1":-89.0895,"lo2":-89.0444,"dy":0.0017,"dx":0.0017,"nx":28,"ny":28,"refTime":"2023-08-26T03:00:00:Z","depth":0,"parameterNumber":3,"parameterNumberName":"V-component_of_WINDS"},"data":[0,0,0,0,0,0,0,0,0,0,0,0,0,0,0,0,0,0,0,0,0,0,0,0,0,0,0,0,0,0,0,0,0,0,0,0,0,0,0,0,0,0,0,0,0,0,0,0,0,0,0,0,0,0,0,0,0,0,-1.0765,-1.0764,0,-1.0624,-1.0623,-1.0621,-1.053,-1.053,-1.0529,-1.0529,-1.0382,-1.0379,-1.0375,0,0,0,0,0,0,0,0,0,0,0,0,0,-1.0953,-1.095,-1.0765,-1.0763,-1.0762,-1.0625,-1.0623,-1.0621,-1.053,-1.053,-1.0529,-1.0528,-1.0383,-1.0379,-1.0375,0,0,0,0,0,0,0,0,0,0,0,0,0,-1.0847,-1.0949,-1.0765,-1.07,-1.0693,-1.0625,-1.0622,-1.062,-1.0531,-1.053,-1.0529,-1.0528,-1.0385,-1.038,-1.0375,-1.036,0,0,-1.0359,-1.0357,0,0,0,0,0,0,0,0,-1.0854,-1.0841,-1.0712,-1.0705,-1.0696,-1.0594,-1.0635,-1.0533,-1.0531,-1.0592,-1.0529,-1.0528,-1.0453,-1.0442,-1.0418,-1.0353,-1.0347,-1.0359,-1.0355,-1.0353,-1.0352,0,0,0,0,0,0,0,-1.0861,-1.0846,-1.0709,-1.071,-1.07,-1.0677,-1.0661,-1.0615,-1.0529,-1.0587,-1.058,-1.0565,-1.0449,-1.0423,-1.0414,-1.0344,-1.0359,-1.0354,-1.0351,-1.0349,-1.0259,-1.026,0,0,0,0,0,0,-1.0879,-1.0853,-1.0714,-1.0705,-1.0775,-1.0674,-1.0656,-1.0628,-1.0529,-1.0513,-1.0565,-1.0561,-1.0432,-1.042,-1.0408,-1.0383,-1.0353,-1.0349,-1.0346,-1.0258,-1.0259,-1.026,0,0,0,0,0,0,-1.0883,-1.0867,-1.0719,-1.0777,-1.0756,-1.0672,-1.064,-1.0625,-1.0599,-1.0513,-1.0497,-1.0555,-1.0431,-1.0415,-1.0372,-1.0377,-1.0346,-1.0342,-1.0258,-1.0259,-1.0259,-1.0335,0,0,0,0,0,0,-1.0889,-1.087,-1.0864,-1.0778,-1.0754,-1.0687,-1.0641,-1.0623,-1.0591,-1.0584,-1.0499,-1.0484,-1.0429,-1.038,-1.0367,-1.037,-1.0338,-1.0257,-1.0258,-1.0259,-1.0332,-1.0339,-1.0345,0,0,0,0,0,-1.0896,-1.0891,-1.0864,-1.0848,-1.0745,-1.0688,-1.0674,-1.0611,-1.0592,-1.0585,-1.0529,-1.0487,-1.0379,-1.0377,-1.0361,-1.0362,-1.0256,-1.0258,-1.0259,-1.0329,-1.0337,-1.0344,0,0,0,0,0,0,-1.0979,-1.0878,-1.0848,-1.0814,-1.0761,-1.0673,-1.0662,-1.0622,-1.0572,-1.0567,-1.0491,-1.0472,-1.0437,-1.0395,-1.0395,-1.0342,-1.0312,-1.0311,-1.0371,-1.0378,-1.0384,-1.0395,-1.0333,0,0,0,0,0,-1.0994,-1.0957,-1.087,-1.0849,-1.0823,-1.0748,-1.072,-1.0677,-1.0617,-1.0594,-1.0535,-1.0479,-1.0432,-1.0402,-1.0355,-1.0325,-1.0305,-1.0318,-1.0324,-1.033,-1.033,-1.031,-1.0315,-1.0265,-1.0265,-1.0265,0,0,-1.1023,-1.0963,-1.0945,-1.0864,-1.0817,-1.0779,-1.0729,-1.0691,-1.0662,-1.0588,-1.0544,-1.0499,-1.043,-1.0394,-1.0375,-1.0358,-1.0339,-1.0332,-1.0337,-1.0333,-1.0312,-1.0317,-1.0321,-1.0266,-1.0265,-1.0265,0,0,-1.1058,-1.1009,-1.0986,-1.094,-1.087,-1.0819,-1.0814,-1.0731,-1.0699,-1.0654,-1.0597,-1.056,-1.0482,-1.0435,-1.0401,-1.0417,-1.0376,-1.0403,-1.0436,-1.0418,-1.0422,-1.0425,-1.0431,-1.0434,-1.0403,-1.0403,-1.0403,0,-1.1103,-1.1045,-1.0979,-1.0944,-1.091,-1.0841,-1.0816,-1.0774,-1.0692,-1.067,-1.0652,-1.0551,-1.05,-1.0451,-1.0455,-1.043,-1.0421,-1.0413,-1.0427,-1.043,-1.0432,-1.0436,-1.0438,-1.0407,-1.0407,-1.0406,-1.0406,0,-1.1104,-1.1064,-1.1054,-1.0977,-1.0941,-1.0912,-1.084,-1.0811,-1.077,-1.0722,-1.0676,-1.0612,-1.055,-1.0535,-1.0495,-1.0481,-1.0472,-1.0442,-1.0411,-1.0441,-1.0444,-1.0445,-1.0413,-1.0411,-1.041,-1.0409,0,0,-1.1188,-1.1074,-1.1071,-1.1035,-1.0952,-1.0919,-1.0886,-1.0826,-1.0803,-1.0748,-1.0717,-1.0652,-1.0623,-1.0585,-1.0538,-1.0522,-1.0538,-1.0493,-1.049,-1.0504,-1.0518,-1.0542,-1.0545,-1.051,-1.051,-1.051,-1.0524,0,-1.121,-1.1148,-1.1087,-1.1046,-1.1008,-1.0942,-1.0913,-1.0858,-1.0811,-1.0771,-1.0719,-1.0674,-1.0639,-1.0615,-1.0597,-1.0541,-1.054,-1.0539,-1.0481,-1.048,-1.0501,-1.0547,-1.0572,-1.0588,-1.0525,-1.0525,-1.0525,0,-1.1228,-1.1177,-1.1133,-1.1052,-1.1034,-1.1009,-1.0949,-1.0911,-1.0847,-1.0814,-1.0771,-1.0722,-1.0683,-1.0656,-1.06,-1.06,-1.0573,-1.0541,-1.054,-1.0533,-1.0505,-1.054,-1.0591,-1.0594,-1.0526,-1.0526,-1.0526,0,-1.1294,-1.1213,-1.1176,-1.1147,-1.1053,-1.1037,-1.0996,-1.0932,-1.0899,-1.0845,-1.0823,-1.0766,-1.0735,-1.0691,-1.0627,-1.0613,-1.0578,-1.0546,-1.0549,-1.0551,-1.0545,-1.0546,-1.0593,-1.0527,-1.0527,-1.0527,-1.0527,0,-1.1325,-1.1301,-1.1205,-1.1182,-1.1152,-1.1081,-1.1053,-1.1007,-1.095,-1.0916,-1.0854,-1.0824,-1.0741,-1.0701,-1.065,-1.0612,-1.0598,-1.057,-1.0557,-1.0575,-1.0579,-1.0557,-1.0554,-1.0528,-1.0527,-1.0527,-1.0527,0,-1.1394,-1.1329,-1.1284,-1.1198,-1.1175,-1.1157,-1.1083,-1.1058,-1.1007,-1.0965,-1.0951,-1.0871,-1.082,-1.0752,-1.068,-1.0646,-1.0614,-1.0593,-1.0636,-1.0628,-1.0635,-1.0636,-1.0669,-1.067,-1.0605,-1.0605,-1.0606,0,-1.1419,-1.1399,-1.131,-1.1284,-1.1245,-1.1203,-1.1169,-1.1098,-1.1065,-1.099,-1.0974,-1.0919,-1.087,-1.0792,-1.0727,-1.0671,-1.0649,-1.0664,-1.064,-1.0659,-1.0649,-1.0651,-1.0648,-1.067,-1.0671,-1.0672,-1.0673,0,-1.147,-1.1438,-1.1392,-1.1335,-1.1297,-1.1248,-1.1196,-1.1178,-1.1095,-1.1061,-1.1009,-1.0971,-1.0897,-1.0843,-1.0778,-1.0735,-1.069,-1.0681,-1.0679,-1.0698,-1.0724,-1.071,-1.0652,-1.0681,-1.068,-1.0679,-1.0679,-1.0679,-1.1517,-1.1496,-1.143,-1.1381,-1.1334,-1.1287,-1.1259,-1.1205,-1.116,-1.1095,-1.1055,-1.1004,-1.0939,-1.0847,-1.0806,-1.0765,-1.0747,-1.0744,-1.0743,-1.0744,-1.075,-1.073,-1.0753,-1.0752,-1.0752,-1.0752,-1.0752,0,-1.1565,-1.1519,-1.1475,-1.1404,-1.1365,-1.1326,-1.1267,-1.1237,-1.1193,-1.1136,-1.109,-1.1029,-1.0975,-1.0906,-1.0847,-1.0827,-1.0805,-1.0814,-1.0815,-1.0806,-1.0769,-1.0777,-1.0833,-1.0833,-1.0833,-1.0833,-1.0833,-1.0833,-1.1585,-1.1547,-1.1507,-1.1445,-1.1398,-1.1348,-1.1318,-1.1274,-1.1228,-1.1163,-1.1118,-1.1073,-1.1011,-1.0947,-1.0896,-1.0877,-1.0858,-1.0874,-1.0849,-1.0816,-1.0809,-1.0802,-1.0809,-1.087,-1.087,-1.0889,-1.0889,-1.0889]}]]